DW7857 Weather Reports


Display with metric or nautical units.
time (UTC)temp
F
wind
direction
speed
MPH
gust
MPH
rain 1hr
in
rain 24hr
in
rain mn
in
humidity
%
barometer
mb
20180622171019 72 43 8.0 10.0 0.00 0.00 0.00 40 1019.7
20180622170011 73 62 6.0 8.0 0.00 0.00 0.00 36 1019.8
20180622165011 73 11 6.0 9.0 0.00 0.00 0.00 37 1019.6
20180622164011 73 343 5.0 7.0 0.00 0.00 0.00 36 1019.8
20180622163011 73 73 5.0 7.0 0.00 0.00 0.00 34 1019.8
20180622162011 76 330 4.0 7.0 0.00 0.00 0.00 33 1020.1
20180622161011 74 10 5.0 8.0 0.00 0.00 0.00 37 1019.8
20180622160011 74 29 4.0 8.0 0.00 0.00 0.00 35 1019.7
20180622155011 73 39 5.0 9.0 0.00 0.00 0.00 36 1020.0
20180622154011 72 74 7.0 10.0 0.00 0.00 0.00 38 1019.9
20180622153011 72 350 7.0 10.0 0.00 0.00 0.00 37 1020.3
20180622152011 73 13 5.0 9.0 0.00 0.00 0.00 37 1020.5
20180622151011 72 16 5.0 7.0 0.00 0.00 0.00 37 1020.2
20180622150011 72 343 8.0 11.0 0.00 0.00 0.00 40 1020.4
20180622145011 72 337 7.0 11.0 0.00 0.00 0.00 40 1020.3
20180622144011 74 76 4.0 6.0 0.00 0.00 0.00 34 1020.3
20180622143011 72 50 6.0 8.0 0.00 0.00 0.00 41 1020.4
20180622142011 72 338 6.0 9.0 0.00 0.00 0.00 40 1020.4
20180622141011 72 43 4.0 7.0 0.00 0.00 0.00 40 1020.4
20180622140011 71 82 6.0 8.0 0.00 0.00 0.00 40 1020.5
20180622135011 71 22 7.0 9.0 0.00 0.00 0.00 41 1020.5
20180622134011 71 38 6.0 8.0 0.00 0.00 0.00 40 1020.6
20180622133011 70 20 8.0 14.0 0.00 0.00 0.00 40 1020.6
20180622132011 69 352 7.0 13.0 0.00 0.00 0.00 40 1020.5
20180622131011 70 65 7.0 13.0 0.00 0.00 0.00 41 1020.8
20180622130011 70 100 7.0 12.0 0.00 0.00 0.00 41 1020.6
20180622125010 71 10 5.0 12.0 0.00 0.00 0.00 41 1020.9
20180622124011 69 88 6.0 11.0 0.00 0.00 0.00 42 1020.7
20180622123011 69 43 7.0 11.0 0.00 0.00 0.00 42 1021.1
20180622122011 69 337 7.0 12.0 0.00 0.00 0.00 42 1021.0
20180622121011 69 54 6.0 8.0 0.00 0.00 0.00 43 1021.1
20180622120018 68 87 6.0 9.0 0.00 0.00 0.00 42 1021.1
20180622115011 68 354 7.0 11.0 0.00 0.00 0.00 42 1021.4
20180622114011 68 70 6.0 11.0 0.00 0.00 0.00 42 1021.2
20180622113018 67 28 6.0 10.0 0.00 0.00 0.00 42 1021.4
20180622112011 67 56 6.0 10.0 0.00 0.00 0.00 42 1021.5
20180622111018 67 41 7.0 12.0 0.00 0.00 0.00 42 1021.5
20180622110018 66 75 7.0 10.0 0.00 0.00 0.00 43 1021.6
20180622105018 66 344 7.0 9.0 0.00 0.00 0.00 41 1021.5
20180622104018 67 42 6.0 10.0 0.00 0.00 0.00 43 1021.5
20180622103018 65 45 7.0 12.0 0.00 0.00 0.00 44 1021.5
20180622102018 66 56 7.0 8.0 0.00 0.00 0.00 43 1021.4
20180622101018 66 20 7.0 11.0 0.00 0.00 0.00 44 1021.5
20180622100018 66 16 8.0 11.0 0.00 0.00 0.00 47 1021.5
20180622095018 65 319 7.0 9.0 0.00 0.00 0.00 48 1021.4
20180622094018 64 335 7.0 10.0 0.00 0.00 0.00 46 1021.3
20180622093018 64 347 7.0 8.0 0.00 0.00 0.00 47 1021.4
20180622092018 65 355 5.0 8.0 0.00 0.00 0.00 49 1021.2
20180622091018 65 43 5.0 8.0 0.00 0.00 0.00 49 1021.6
20180622090018 64 3 6.0 8.0 0.00 0.00 0.00 48 1021.7
20180622085018 63 354 8.0 9.0 0.00 0.00 0.00 52 1021.7
20180622084018 63 36 7.0 10.0 0.00 0.00 0.00 53 1021.5
20180622083018 62 11 8.0 11.0 0.00 0.00 0.00 54 1021.4
20180622082018 61 89 7.0 10.0 0.00 0.00 0.00 53 1021.7
20180622081018 62 27 5.0 8.0 0.00 0.00 0.00 54 1021.8
20180622080018 61 46 7.0 11.0 0.00 0.00 0.00 55 1022.0
20180622075018 60 81 8.0 10.0 0.00 0.00 0.00 56 1021.8
20180622074018 60 91 7.0 9.0 0.00 0.00 0.00 54 1021.8
20180622073018 61 54 6.0 9.0 0.00 0.00 0.00 55 1021.8
20180622072018 60 317 7.0 11.0 0.00 0.00 0.00 54 1021.8
20180622071018 60 62 5.0 8.0 0.00 0.00 0.00 53 1022.0
20180622070018 61 35 4.0 6.0 0.00 0.00 0.00 54 1022.0
20180622065018 61 50 3.0 5.0 0.00 0.00 0.00 56 1022.0
20180622064018 59 62 3.0 5.0 0.00 0.00 0.00 56 1021.9
20180622063018 57 74 1.0 4.0 0.00 0.00 0.00 61 1021.9
20180622062018 54 75 2.0 4.0 0.00 0.00 0.00 69 1021.8
20180622061018 53 77 1.0 4.0 0.00 0.00 0.00 70 1021.8
20180622060017 52 314 0.0 4.0 0.00 0.00 0.00 70 1021.8
20180622055018 51 0 0.0 0.0 0.00 0.00 0.00 72 1021.6
20180622054017 49 0 0.0 0.0 0.00 0.00 0.00 73 1021.6
20180622053010 48 0 0.0 0.0 0.00 0.00 0.00 73 1021.5
20180622052010 48 0 0.0 0.0 0.00 0.00 0.00 75 1021.4
20180622051017 47 0 0.0 0.0 0.00 0.00 0.00 75 1021.3
20180622050017 46 0 0.0 0.0 0.00 0.00 0.00 75 1021.4
20180622045017 46 0 0.0 0.0 0.00 0.00 0.00 75 1021.5
20180622044017 46 0 0.0 0.0 0.00 0.00 0.00 75 1021.5
20180622043017 45 0 0.0 0.0 0.00 0.00 0.00 81 1021.3
20180622042017 45 0 0.0 0.0 0.00 0.00 0.00 80 1021.2
20180622041017 45 65 0.0 2.0 0.00 0.00 0.00 80 1021.0
20180622040017 46 46 0.0 2.0 0.00 0.00 0.00 73 1020.9
20180622035017 46 0 0.0 0.0 0.00 0.00 0.00 73 1021.1
20180622034017 46 0 0.0 0.0 0.00 0.00 0.00 73 1021.0
20180622033017 46 0 0.0 0.0 0.00 0.00 0.00 74 1021.0
20180622032017 45 0 0.0 0.0 0.00 0.00 0.00 80 1021.1
20180622031010 45 0 0.0 0.0 0.00 0.00 0.00 80 1021.1
20180622030017 46 0 0.0 0.0 0.00 0.00 0.00 73 1021.0
20180622025017 46 0 0.0 0.0 0.00 0.00 0.00 74 1021.1
20180622024017 46 0 0.0 0.0 0.00 0.00 0.00 73 1021.1
20180622023017 46 0 0.0 0.0 0.00 0.00 0.00 72 1021.0
20180622022017 46 0 0.0 0.0 0.00 0.00 0.00 72 1021.0
20180622021017 47 0 0.0 0.0 0.00 0.00 0.00 72 1020.9
20180622020017 47 0 0.0 0.0 0.00 0.00 0.00 71 1020.8
20180622015017 47 0 0.0 0.0 0.00 0.00 0.00 70 1020.8
20180622014018 47 0 0.0 0.0 0.00 0.00 0.00 70 1020.9
20180622013017 47 0 0.0 0.0 0.00 0.00 0.00 69 1021.0
20180622012017 48 0 0.0 0.0 0.00 0.00 0.00 69 1021.1
20180622011017 48 0 0.0 0.0 0.00 0.00 0.00 68 1020.8
20180622010017 48 83 0.0 2.0 0.00 0.00 0.00 69 1020.9
20180622005017 49 69 2.0 5.0 0.00 0.00 0.00 70 1021.1
20180622004017 48 46 0.0 2.0 0.00 0.00 0.00 68 1020.7
20180622003018 48 0 0.0 0.0 0.00 0.00 0.00 65 1021.1
20180622002017 49 0 0.0 0.0 0.00 0.00 0.00 65 1020.9
20180622001018 50 0 0.0 0.0 0.00 0.00 0.00 63 1021.1
20180622000016 50 0 0.0 0.0 0.00 0.00 0.00 62 1021.2
20180621235011 51 0 0.0 0.0 0.00 0.00 0.00 62 1021.1
20180621234011 51 0 0.0 0.0 0.00 0.00 0.00 61 1020.7
20180621233010 51 0 0.0 0.0 0.00 0.00 0.00 62 1020.8
20180621232010 51 0 0.0 0.0 0.00 0.00 0.00 63 1020.9
20180621231011 51 0 0.0 0.0 0.00 0.00 0.00 64 1020.5
20180621230011 51 0 0.0 0.0 0.00 0.00 0.00 63 1020.6
20180621225012 52 0 0.0 0.0 0.00 0.00 0.00 62 1020.8
20180621224011 53 0 0.0 0.0 0.00 0.00 0.00 61 1020.6
20180621223011 53 321 2.0 4.0 0.00 0.00 0.00 60 1020.6
20180621222010 53 352 1.0 4.0 0.00 0.00 0.00 60 1020.8
20180621221011 54 292 0.0 2.0 0.00 0.00 0.00 60 1020.6
20180621220011 54 317 1.0 4.0 0.00 0.00 0.00 60 1020.5
20180621215011 54 0 0.0 0.0 0.00 0.00 0.00 60 1020.4
20180621214010 54 0 0.0 0.0 0.00 0.00 0.00 59 1020.3
20180621213011 55 0 0.0 0.0 0.00 0.00 0.00 53 1020.2
20180621212011 55 0 0.0 0.0 0.00 0.00 0.00 52 1020.1
20180621211011 56 0 0.0 0.0 0.00 0.00 0.00 51 1020.1
20180621210010 57 45 0.0 2.0 0.00 0.00 0.00 51 1019.8
20180621205010 57 0 0.0 0.0 0.00 0.00 0.00 50 1019.8
20180621204010 58 66 0.0 2.0 0.00 0.00 0.00 48 1019.7
20180621203010 59 73 0.0 2.0 0.00 0.00 0.00 46 1019.6
20180621202011 60 1 0.0 2.0 0.00 0.00 0.00 43 1019.3
20180621201011 62 64 1.0 2.0 0.00 0.00 0.00 41 1019.4
20180621200011 64 53 2.0 4.0 0.00 0.00 0.00 35 1019.4
20180621195011 66 86 2.0 4.0 0.00 0.00 0.00 33 1019.2
20180621194010 66 38 3.0 7.0 0.00 0.00 0.00 32 1019.0
20180621193010 66 76 6.0 11.0 0.00 0.00 0.00 32 1019.1
20180621192011 66 73 8.0 12.0 0.00 0.00 0.00 31 1018.9
20180621191010 66 55 9.0 11.0 0.00 0.00 0.00 31 1018.7
20180621190010 67 83 8.0 11.0 0.00 0.00 0.00 32 1018.8
20180621185010 67 87 8.0 11.0 0.00 0.00 0.00 32 1018.9
20180621184010 67 58 8.0 10.0 0.00 0.00 0.00 31 1018.6
20180621183010 67 55 8.0 13.0 0.00 0.00 0.00 32 1018.7
20180621182011 67 63 10.0 15.0 0.00 0.00 0.00 32 1018.7
20180621181010 69 59 7.0 11.0 0.00 0.00 0.00 33 1018.7
20180621180010 69 75 6.0 9.0 0.00 0.00 0.00 33 1018.5
20180621175010 69 21 7.0 10.0 0.00 0.00 0.00 33 1018.7
20180621174010 69 343 9.0 11.0 0.00 0.00 0.00 34 1018.5
20180621173010 69 312 8.0 11.0 0.00 0.00 0.00 34 1018.6
20180621172010 68 317 10.0 17.0 0.00 0.00 0.00 33 1018.4